| time (UTC) | temp F | wind direction | speed MPH | gust MPH | rain 1hr in | rain 24hr in | rain mn in | humidity % | barometer mb |
| 20260831192003 | 84 | 349 | 0.0 | 2.0 | 0.00 | 1.14 | 0.00 | 88 | 1003.9 |
| 20260831191859 | 84 | 349 | 0.0 | 2.0 | 0.00 | 1.14 | 0.00 | 88 | 1003.9 |
| 20260831191805 | 84 | 349 | 0.0 | 2.0 | 0.00 | 1.14 | 0.00 | 88 | 1003.9 |
| 20260831191659 | 84 | 349 | 0.0 | 2.0 | 0.00 | 1.14 | 0.00 | 88 | 1003.9 |
| 20260831191559 | 84 | 349 | 0.0 | 2.0 | 0.00 | 1.14 | 0.00 | 88 | 1004.0 |
| 20260831191505 | 84 | 349 | 1.0 | 2.0 | 0.00 | 1.14 | 0.00 | 87 | 1004.0 |
| 20260831191359 | 84 | 349 | 0.0 | 2.0 | 0.00 | 1.14 | 0.00 | 87 | 1003.9 |
| 20260831191304 | 84 | 349 | 0.0 | 2.0 | 0.00 | 1.14 | 0.00 | 87 | 1003.9 |
| 20260831191158 | 84 | 349 | 1.0 | 2.0 | 0.00 | 1.14 | 0.00 | 87 | 1004.0 |
| 20260831191106 | 84 | 349 | 1.0 | 2.0 | 0.00 | 1.14 | 0.00 | 87 | 1004.0 |
| 20260831191004 | 84 | 349 | 0.0 | 2.0 | 0.00 | 1.14 | 0.00 | 87 | 1003.9 |
| 20260831190900 | 84 | 349 | 1.0 | 2.0 | 0.00 | 1.14 | 0.00 | 87 | 1003.9 |
| 20260831190659 | 84 | 24 | 1.0 | 2.0 | 0.00 | 1.14 | 0.00 | 87 | 1003.9 |
| 20260831190606 | 84 | 24 | 2.0 | 2.0 | 0.00 | 1.14 | 0.00 | 87 | 1003.9 |
| 20260831190404 | 84 | 35 | 0.0 | 2.0 | 0.00 | 1.14 | 0.00 | 87 | 1004.0 |
| 20260831190307 | 84 | 48 | 0.0 | 0.0 | 0.00 | 1.14 | 0.00 | 87 | 1003.9 |
| 20260831190203 | 84 | 47 | 0.0 | 0.0 | 0.00 | 1.14 | 0.00 | 87 | 1004.0 |
| 20260831190106 | 0 | 0.0 | 0.0 | 0.00 | 1.14 | 0.00 | 1004.0 | ||
| 20260831190011 | 0 | 0.0 | 0.0 | 0.00 | 1.14 | 0.00 | 1004.0 | ||
| 20260831185904 | 0 | 0.0 | 0.0 | 0.00 | 1.14 | 0.00 | 1004.0 | ||
| 20260831185659 | 84 | 177 | 0.0 | 0.0 | 0.00 | 1.14 | 1.14 | 87 | 1003.9 |
| 20260831185621 | 84 | 177 | 0.0 | 0.0 | 0.00 | 1.14 | 1.14 | 87 | 1003.9 |
| 20260831103103 | 86 | 275 | 3.0 | 5.0 | 0.00 | 1.14 | 1.14 | 85 | 1001.7 |
| 20260831103003 | 86 | 300 | 3.0 | 5.0 | 0.00 | 1.14 | 1.14 | 85 | 1001.8 |
| 20260831102900 | 86 | 291 | 3.0 | 5.0 | 0.00 | 1.14 | 1.14 | 85 | 1001.7 |
| 20260831102805 | 86 | 325 | 3.0 | 5.0 | 0.00 | 1.14 | 1.14 | 85 | 1001.8 |
| 20260831102701 | 86 | 291 | 3.0 | 5.0 | 0.00 | 1.14 | 1.14 | 85 | 1001.8 |
| 20260831102604 | 86 | 311 | 3.0 | 5.0 | 0.00 | 1.14 | 1.14 | 85 | 1001.8 |
| 20260831102502 | 86 | 303 | 3.0 | 5.0 | 0.00 | 1.14 | 1.14 | 86 | 1001.9 |
| 20260831102307 | 85 | 268 | 1.0 | 3.0 | 0.00 | 1.14 | 1.14 | 87 | 1002.0 |
| 20260831102203 | 85 | 335 | 1.0 | 3.0 | 0.00 | 1.14 | 1.14 | 87 | 1001.9 |
| 20260831102059 | 85 | 276 | 1.0 | 3.0 | 0.00 | 1.14 | 1.14 | 86 | 1001.9 |
| 20260831102009 | 85 | 276 | 2.0 | 3.0 | 0.00 | 1.14 | 1.14 | 87 | 1001.9 |
| 20260831101904 | 85 | 276 | 2.0 | 3.0 | 0.00 | 1.14 | 1.14 | 87 | 1001.9 |
| 20260831101759 | 85 | 296 | 1.0 | 3.0 | 0.00 | 1.14 | 1.14 | 87 | 1001.9 |
| 20260831101701 | 85 | 296 | 1.0 | 3.0 | 0.00 | 1.14 | 1.14 | 87 | 1001.9 |
| 20260831101603 | 85 | 296 | 1.0 | 3.0 | 0.00 | 1.14 | 1.14 | 87 | 1001.9 |
| 20260831101511 | 85 | 296 | 1.0 | 3.0 | 0.00 | 1.14 | 1.14 | 88 | 1001.9 |
| 20260831101403 | 84 | 296 | 0.0 | 3.0 | 0.00 | 1.14 | 1.14 | 88 | 1001.9 |
| 20260831101300 | 84 | 296 | 0.0 | 3.0 | 0.00 | 1.14 | 1.14 | 88 | 1001.9 |
| 20260831101202 | 84 | 296 | 0.0 | 3.0 | 0.00 | 1.14 | 1.14 | 88 | 1001.9 |
| 20260831101102 | 84 | 296 | 1.0 | 3.0 | 0.00 | 1.14 | 1.14 | 88 | 1001.9 |
| 20260831101010 | 84 | 296 | 1.0 | 3.0 | 0.00 | 1.14 | 1.14 | 88 | 1001.9 |
| 20260831100703 | 84 | 255 | 1.0 | 3.0 | 0.00 | 1.14 | 1.14 | 89 | 1001.9 |
| 20260831100602 | 84 | 267 | 0.0 | 3.0 | 0.00 | 1.14 | 1.14 | 89 | 1002.0 |
| 20260831100503 | 84 | 267 | 0.0 | 3.0 | 0.00 | 1.14 | 1.14 | 89 | 1002.0 |
| 20260831100403 | 84 | 217 | 0.0 | 3.0 | 0.00 | 1.14 | 1.14 | 89 | 1002.0 |
| 20260831100300 | 84 | 217 | 1.0 | 3.0 | 0.00 | 1.14 | 1.14 | 89 | 1002.0 |
| 20260831100200 | 84 | 217 | 1.0 | 3.0 | 0.00 | 1.14 | 1.14 | 89 | 1002.1 |
| 20260831100100 | 83 | 232 | 1.0 | 3.0 | 0.00 | 1.14 | 1.14 | 89 | 1002.1 |
| 20260831100010 | 83 | 255 | 2.0 | 3.0 | 0.00 | 1.14 | 1.14 | 90 | 1002.1 |
| 20260831095906 | 83 | 230 | 2.0 | 4.0 | 0.00 | 1.14 | 1.14 | 90 | 1002.1 |
| 20260831095803 | 83 | 235 | 1.0 | 4.0 | 0.00 | 1.14 | 1.14 | 90 | 1002.0 |
| 20260831095703 | 83 | 246 | 0.0 | 4.0 | 0.00 | 1.14 | 1.14 | 90 | 1002.0 |
| 20260831095601 | 83 | 244 | 1.0 | 4.0 | 0.00 | 1.14 | 1.14 | 90 | 1002.1 |
| 20260831095504 | 83 | 244 | 1.0 | 4.0 | 0.00 | 1.14 | 1.14 | 90 | 1002.1 |
| 20260831095358 | 83 | 288 | 1.0 | 4.0 | 0.00 | 1.14 | 1.14 | 90 | 1002.1 |
| 20260831095306 | 82 | 270 | 1.0 | 4.0 | 0.00 | 1.14 | 1.14 | 90 | 1002.1 |
| 20260831095201 | 82 | 288 | 2.0 | 4.0 | 0.00 | 1.14 | 1.14 | 90 | 1002.1 |
| 20260831095103 | 82 | 273 | 3.0 | 4.0 | 0.00 | 1.14 | 1.14 | 90 | 1002.1 |
| 20260831095003 | 82 | 270 | 2.0 | 4.0 | 0.00 | 1.14 | 1.14 | 90 | 1002.1 |
| 20260831094900 | 82 | 272 | 2.0 | 3.0 | 0.00 | 1.14 | 1.14 | 91 | 1002.1 |
| 20260831094803 | 82 | 298 | 2.0 | 3.0 | 0.00 | 1.14 | 1.14 | 91 | 1002.2 |
| 20260831094705 | 82 | 294 | 1.0 | 3.0 | 0.00 | 1.14 | 1.14 | 91 | 1002.2 |
| 20260831094559 | 82 | 246 | 0.0 | 3.0 | 0.00 | 1.14 | 1.14 | 91 | 1002.2 |
| 20260831094505 | 82 | 242 | 0.0 | 3.0 | 0.00 | 1.14 | 1.14 | 91 | 1002.2 |
| 20260831094359 | 82 | 242 | 1.0 | 3.0 | 0.00 | 1.14 | 1.14 | 91 | 1002.3 |
| 20260831094302 | 82 | 242 | 1.0 | 3.0 | 0.00 | 1.14 | 1.14 | 91 | 1002.4 |
| 20260831094159 | 81 | 242 | 1.0 | 3.0 | 0.00 | 1.14 | 1.14 | 91 | 1002.3 |
| 20260831094104 | 81 | 242 | 1.0 | 3.0 | 0.00 | 1.14 | 1.14 | 91 | 1002.4 |
| 20260831094004 | 81 | 220 | 1.0 | 3.0 | 0.00 | 1.14 | 1.14 | 91 | 1002.5 |
| 20260831093905 | 81 | 279 | 2.0 | 3.0 | 0.00 | 1.14 | 1.14 | 91 | 1002.6 |
| 20260831093801 | 81 | 273 | 1.0 | 3.0 | 0.00 | 1.14 | 1.14 | 91 | 1002.6 |
| 20260831093704 | 81 | 271 | 1.0 | 3.0 | 0.00 | 1.14 | 1.14 | 91 | 1002.7 |
| 20260831093605 | 81 | 255 | 0.0 | 3.0 | 0.00 | 1.14 | 1.14 | 91 | 1002.7 |
| 20260831093502 | 81 | 254 | 1.0 | 3.0 | 0.00 | 1.14 | 1.14 | 91 | 1002.7 |
| 20260831093402 | 81 | 204 | 1.0 | 3.0 | 0.00 | 1.14 | 1.14 | 91 | 1002.8 |
| 20260831093258 | 81 | 163 | 1.0 | 3.0 | 0.00 | 1.14 | 1.14 | 91 | 1002.9 |
| 20260831093159 | 81 | 163 | 0.0 | 3.0 | 0.00 | 1.14 | 1.14 | 91 | 1002.8 |
| 20260831093059 | 81 | 289 | 0.0 | 3.0 | 0.00 | 1.14 | 1.14 | 91 | 1002.9 |
| 20260831093011 | 81 | 287 | 0.0 | 3.0 | 0.00 | 1.14 | 1.14 | 91 | 1003.0 |
| 20260831092906 | 80 | 281 | 1.0 | 3.0 | 0.00 | 1.14 | 1.14 | 91 | 1003.0 |
| 20260831092805 | 80 | 282 | 1.0 | 4.0 | 0.00 | 1.14 | 1.14 | 91 | 1003.0 |
| 20260831092659 | 80 | 303 | 1.0 | 4.0 | 0.01 | 1.14 | 1.14 | 92 | 1003.0 |
| 20260831092559 | 80 | 178 | 0.0 | 4.0 | 0.01 | 1.14 | 1.14 | 91 | 1003.0 |
| 20260831092511 | 80 | 277 | 1.0 | 4.0 | 0.01 | 1.14 | 1.14 | 91 | 1003.0 |
| 20260831092359 | 80 | 279 | 2.0 | 4.0 | 0.01 | 1.14 | 1.14 | 91 | 1003.0 |
| 20260831092259 | 80 | 292 | 2.0 | 4.0 | 0.01 | 1.14 | 1.14 | 91 | 1003.0 |
| 20260831092206 | 80 | 256 | 2.0 | 4.0 | 0.01 | 1.14 | 1.14 | 91 | 1003.0 |
| 20260831092059 | 80 | 261 | 2.0 | 4.0 | 0.01 | 1.14 | 1.14 | 91 | 1003.0 |
| 20260831092006 | 80 | 252 | 2.0 | 4.0 | 0.01 | 1.14 | 1.14 | 91 | 1003.0 |
| 20260831091703 | 80 | 237 | 1.0 | 4.0 | 0.01 | 1.14 | 1.14 | 91 | 1003.0 |
| 20260831091503 | 79 | 257 | 1.0 | 4.0 | 0.02 | 1.14 | 1.14 | 91 | 1003.0 |
| 20260831091402 | 79 | 257 | 1.0 | 4.0 | 0.02 | 1.14 | 1.14 | 91 | 1003.1 |
| 20260831091304 | 79 | 252 | 1.0 | 3.0 | 0.02 | 1.14 | 1.14 | 91 | 1003.1 |
| 20260831091200 | 79 | 270 | 0.0 | 2.0 | 0.04 | 1.14 | 1.14 | 91 | 1003.0 |
| 20260831090902 | 79 | 270 | 1.0 | 4.0 | 0.06 | 1.14 | 1.14 | 91 | 1003.1 |
| 20260831090802 | 79 | 270 | 1.0 | 4.0 | 0.06 | 1.14 | 1.14 | 91 | 1003.2 |
| 20260831090600 | 79 | 234 | 0.0 | 4.0 | 0.09 | 1.14 | 1.14 | 91 | 1003.2 |
| 20260831090501 | 79 | 234 | 1.0 | 4.0 | 0.12 | 1.14 | 1.14 | 91 | 1003.3 |
| 20260831090302 | 79 | 232 | 1.0 | 4.0 | 0.17 | 1.14 | 1.14 | 90 | 1003.3 |
| 20260831090158 | 79 | 204 | 2.0 | 4.0 | 0.20 | 1.14 | 1.14 | 90 | 1003.3 |
| 20260831090104 | 79 | 208 | 1.0 | 4.0 | 0.21 | 1.14 | 1.14 | 91 | 1003.3 |
| 20260831090004 | 79 | 208 | 1.0 | 6.0 | 0.24 | 1.14 | 1.14 | 91 | 1003.3 |
| 20260831085905 | 79 | 238 | 1.0 | 6.0 | 0.26 | 1.14 | 1.14 | 91 | 1003.3 |
| 20260831085803 | 79 | 167 | 1.0 | 6.0 | 0.28 | 1.14 | 1.14 | 90 | 1003.3 |
| 20260831085659 | 79 | 166 | 1.0 | 7.0 | 0.31 | 1.14 | 1.14 | 90 | 1003.3 |
| 20260831085602 | 79 | 156 | 1.0 | 7.0 | 0.33 | 1.14 | 1.14 | 90 | 1003.3 |
| 20260831085405 | 78 | 209 | 2.0 | 7.0 | 0.37 | 1.14 | 1.14 | 90 | 1003.4 |
| 20260831085306 | 79 | 227 | 3.0 | 7.0 | 0.39 | 1.14 | 1.14 | 90 | 1003.4 |
| 20260831085159 | 78 | 195 | 3.0 | 7.0 | 0.39 | 1.14 | 1.14 | 91 | 1003.5 |
| 20260831085107 | 78 | 182 | 4.0 | 7.0 | 0.39 | 1.14 | 1.14 | 90 | 1003.6 |
| 20260831085010 | 78 | 200 | 6.0 | 7.0 | 0.41 | 1.14 | 1.14 | 90 | 1003.6 |
| 20260831084802 | 78 | 181 | 4.0 | 6.0 | 0.43 | 1.14 | 1.14 | 90 | 1003.6 |
| 20260831084707 | 78 | 163 | 3.0 | 5.0 | 0.45 | 1.14 | 1.14 | 90 | 1003.5 |
| 20260831084604 | 78 | 212 | 2.0 | 4.0 | 0.46 | 1.14 | 1.14 | 90 | 1003.5 |
| 20260831084503 | 78 | 248 | 3.0 | 4.0 | 0.46 | 1.14 | 1.14 | 90 | 1003.4 |
| 20260831084359 | 78 | 219 | 2.0 | 6.0 | 0.47 | 1.14 | 1.14 | 90 | 1003.5 |
| 20260831084303 | 78 | 200 | 2.0 | 6.0 | 0.48 | 1.14 | 1.14 | 90 | 1003.5 |
| 20260831084203 | 78 | 240 | 2.0 | 6.0 | 0.50 | 1.14 | 1.14 | 90 | 1003.6 |
| 20260831084059 | 78 | 245 | 2.0 | 7.0 | 0.52 | 1.14 | 1.14 | 90 | 1003.6 |
| 20260831084003 | 78 | 243 | 2.0 | 7.0 | 0.54 | 1.14 | 1.14 | 90 | 1003.5 |
| 20260831083858 | 78 | 230 | 2.0 | 7.0 | 0.57 | 1.14 | 1.14 | 90 | 1003.6 |
| 20260831083800 | 78 | 191 | 2.0 | 7.0 | 0.61 | 1.14 | 1.14 | 90 | 1003.4 |
| 20260831083702 | 78 | 155 | 3.0 | 7.0 | 0.66 | 1.14 | 1.14 | 90 | 1003.4 |
| 20260831083602 | 78 | 175 | 3.0 | 7.0 | 0.72 | 1.14 | 1.14 | 90 | 1003.6 |
| 20260831083403 | 78 | 202 | 4.0 | 7.0 | 0.79 | 1.14 | 1.14 | 90 | 1003.7 |
| 20260831083302 | 78 | 197 | 4.0 | 7.0 | 0.86 | 1.14 | 1.14 | 90 | 1003.7 |
| 20260831083159 | 78 | 191 | 4.0 | 6.0 | 0.88 | 1.14 | 1.14 | 90 | 1003.8 |
| 20260831083101 | 78 | 185 | 5.0 | 9.0 | 0.93 | 1.14 | 1.14 | 90 | 1003.8 |
| 20260831083007 | 78 | 210 | 4.0 | 9.0 | 0.97 | 1.14 | 1.14 | 90 | 1003.8 |
| 20260831082901 | 78 | 171 | 2.0 | 10.0 | 0.98 | 1.14 | 1.14 | 90 | 1003.7 |
| 20260831082801 | 78 | 163 | 2.0 | 10.0 | 0.98 | 1.13 | 1.13 | 90 | 1003.7 |
| 20260831082702 | 78 | 192 | 2.0 | 10.0 | 0.99 | 1.13 | 1.13 | 89 | 1003.6 |
| 20260831082602 | 78 | 222 | 3.0 | 10.0 | 0.99 | 1.13 | 1.13 | 90 | 1003.6 |
| 20260831082504 | 78 | 249 | 3.0 | 10.0 | 0.99 | 1.13 | 1.13 | 90 | 1003.6 |
| 20260831082306 | 78 | 238 | 5.0 | 10.0 | 1.01 | 1.13 | 1.13 | 89 | 1003.8 |
| 20260831082202 | 78 | 205 | 6.0 | 10.0 | 1.01 | 1.13 | 1.13 | 90 | 1003.7 |
| 20260831082103 | 78 | 234 | 5.0 | 10.0 | 1.04 | 1.13 | 1.13 | 89 | 1003.7 |
| 20260831081900 | 78 | 229 | 2.0 | 4.0 | 1.09 | 1.13 | 1.13 | 89 | 1003.6 |
| 20260831081801 | 78 | 270 | 2.0 | 4.0 | 1.13 | 1.13 | 1.13 | 89 | 1003.6 |
| 20260831081659 | 78 | 262 | 2.0 | 4.0 | 1.13 | 1.13 | 1.13 | 89 | 1003.6 |
| 20260831081601 | 78 | 235 | 2.0 | 4.0 | 1.13 | 1.13 | 1.13 | 89 | 1003.5 |
| 20260831081502 | 78 | 224 | 2.0 | 5.0 | 1.13 | 1.13 | 1.13 | 89 | 1003.6 |
| 20260831081301 | 78 | 261 | 2.0 | 5.0 | 1.12 | 1.12 | 1.12 | 89 | 1003.6 |
| 20260831081102 | 78 | 327 | 2.0 | 5.0 | 1.10 | 1.10 | 1.10 | 88 | 1003.6 |
| 20260831081008 | 78 | 311 | 1.0 | 5.0 | 1.09 | 1.09 | 1.09 | 88 | 1003.8 |
| 20260831080901 | 78 | 278 | 1.0 | 5.0 | 1.09 | 1.09 | 1.09 | 88 | 1003.9 |
| 20260831080801 | 78 | 263 | 2.0 | 5.0 | 1.08 | 1.08 | 1.08 | 88 | 1004.1 |
| 20260831080704 | 78 | 263 | 3.0 | 7.0 | 1.07 | 1.07 | 1.07 | 88 | 1004.1 |
| 20260831080559 | 78 | 249 | 3.0 | 7.0 | 1.05 | 1.05 | 1.05 | 88 | 1004.2 |
| 20260831080403 | 78 | 273 | 2.0 | 8.0 | 0.99 | 0.99 | 0.99 | 88 | 1004.3 |
| 20260831080303 | 78 | 355 | 2.0 | 10.0 | 0.98 | 0.98 | 0.98 | 88 | 1004.3 |
| 20260831080203 | 78 | 46 | 1.0 | 10.0 | 0.94 | 0.94 | 0.94 | 87 | 1004.4 |
| 20260831080004 | 78 | 153 | 4.0 | 10.0 | 0.90 | 0.90 | 0.90 | 87 | 1004.4 |
| 20260831075859 | 78 | 158 | 4.0 | 10.0 | 0.88 | 0.88 | 0.88 | 87 | 1004.3 |
| 20260831075803 | 78 | 190 | 4.0 | 10.0 | 0.86 | 0.86 | 0.86 | 87 | 1004.4 |
| 20260831075701 | 78 | 215 | 5.0 | 10.0 | 0.83 | 0.83 | 0.83 | 87 | 1004.3 |
| 20260831075601 | 78 | 200 | 5.0 | 10.0 | 0.81 | 0.81 | 0.81 | 87 | 1004.3 |
| 20260831075401 | 78 | 239 | 4.0 | 11.0 | 0.77 | 0.77 | 0.77 | 87 | 1004.3 |
| 20260831075301 | 79 | 242 | 5.0 | 11.0 | 0.76 | 0.76 | 0.76 | 87 | 1004.3 |
| 20260831075205 | 78 | 238 | 5.0 | 11.0 | 0.75 | 0.75 | 0.75 | 86 | 1004.3 |
| 20260831075101 | 79 | 248 | 5.0 | 12.0 | 0.74 | 0.74 | 0.74 | 86 | 1004.3 |
| 20260831075052 | 79 | 248 | 5.0 | 12.0 | 0.74 | 0.74 | 0.74 | 86 | 1004.3 |